Hourly Data Report for May 09, 2021

FISHER BRANCH (AUT)
MANITOBA
Current Station Operator: ECCC - MSC

51°05'00.100" N
97°33'16.200" W
253.00 m
50309J6
71442
WSZ

Download Data

Hourly Data (May 2021)
Hourly Data Report for May 9, 2021
TIME
LST
Temp Definition
°C
Dew Point Definition
°C
Rel Hum Definition
%
Precip. Amount Definition
mm

Wind Dir Definition
10's deg

Wind Spd Definition
km/h
Visibility Definition
km
Stn Press Definition
kPa
Hmdx Definition


Wind Chill Definition


Weather Definition


00:00 -2.1 -6.8 71 0.0 3 8   99.38   -5 LegendNANA
01:00 -1.5 -6.0 72 0.2 2 7   99.39   -4 LegendNANA
02:00 -2.5 -7.3 69 0.0 1 6   99.41   -5 LegendNANA
03:00 -3.8 -7.1 78 0.0 3 7   99.42   -7 LegendNANA
04:00 -2.2 -5.7 77 0.0 36 7   99.45   -5 LegendNANA
05:00 -3.3 -6.1 81 0.0 35 7   99.49   -6 LegendNANA
06:00 -2.0 -5.2 78 0.2 35 8   99.56   -5 LegendNANA
07:00 1.9 -3.4 68 0.0 3 8   99.63     LegendNANA
08:00 3.2 -3.3 62 0.0 4 8   99.64     LegendNANA
09:00 4.5 -3.5 56 0.0 35 10   99.66     LegendNANA
10:00 6.3 -2.9 52 0.0 33 15   99.65     LegendNANA
11:00 7.7 -3.4 46 0.0 2 17   99.62     LegendNANA
12:00 7.0 -5.1 42 0.0 36 20   99.58     LegendNANA
13:00 7.7 -3.4 45 0.0 36 18   99.56     LegendNANA
14:00 7.3 -4.6 42 0.0 1 20   99.54     LegendNANA
15:00 7.1 -6.0 39 0.0 2 20   99.53     LegendNANA
16:00 7.8 -3.6 44 0.0 3 19   99.53     LegendNANA
17:00 7.3 -3.5 46 0.0 2 15   99.53     LegendNANA
18:00 6.6 -3.9 47 0.0 2 17   99.54     LegendNANA
19:00 5.9 -4.3 48 0.0 4 19   99.59     LegendNANA
20:00 3.7 -3.4 60 0.0 2 9   99.65     LegendNANA
21:00 3.1 -2.9 64 0.0 1 9   99.71     LegendNANA
22:00 2.9 -3.2 64 0.0 3 7   99.74     LegendNANA
23:00 -0.5 -4.8 73 0.0 2 6   99.73   -3 LegendNANA

Notes on Data Quality.

Legend

  • E = Estimated
  • M = Missing
  • NA = Not Available*
  • [empty] = Indicates an unobserved value
Date modified: